Regional Weather Roundup
Issued by NWS

Home | Current Version | Previous Version | Graphics & Text | Print | Product List | Glossary On
Versions: 1 2 3 4 5 6 7 8 9 10 11 12 13 14 15 16 17 18 19 20 21 22 23 24 25 26 27 28 29 30 31 32 33 34 35 36 37 38 39 40 41 42 43 44 45 46 47 48 49 50
000
ASUS43 KOAX 212210
RWRNE

WEATHER ROUNDUP FOR NEBRASKA
NATIONAL WEATHER SERVICE OMAHA NE
500 PM CDT FRI JUL 21 2017

NOTES: SATELLITE DATA IS BEING USED TO AUGMENT CLOUD COVER ABOVE
       12000 FEET.
       "FAIR" INDICATES FEW OR NO CLOUDS BELOW 12,000 FEET WITH NO
       SIGNIFICANT WEATHER AND/OR OBSTRUCTIONS TO VISIBILITY.


NEZ001>004-019>022-054>056-212300-
NEBRASKA PANHANDLE

CITY           SKY/WX    TMP DP  RH WIND       PRES   REMARKS
SCOTTSBLUFF    MOSUNNY   94  47  20 N8        29.97F HX  90
ALLIANCE       CLOUDY    96  48  19 N14       29.96F HX  92
CHADRON        SUNNY     99  36  11 NW17G26   29.89F HAZE    HX  93
GORDON         FAIR      94  56  28 NW10      29.91F HX  92
KIMBALL        SUNNY     94  49  21 N12       30.05F HX  90
SIDNEY         SUNNY     97  45  16 N8G18     30.01F HX  93
$$

NEZ057>060-069>072-079>082-212300-
SOUTHWEST NEBRASKA

CITY           SKY/WX    TMP DP  RH WIND       PRES   REMARKS
NORTH PLATTE   SUNNY    103  56  21 W9        29.83F HX 102
IMPERIAL       SUNNY    101  47  16 VRB6      29.89F HX  97
LEXINGTON      SUNNY     95  77  55 SE7       29.82S HX 110
MCCOOK         PTSUNNY   98  62  30 S13G20    29.83S HX  99
OGALLALA       SUNNY    102  46  14 NW17G29   29.89F HX  98
$$

NEZ005>010-023>029-035>040-094-212300-
NORTH CENTRAL NEBRASKA

CITY           SKY/WX    TMP DP  RH WIND       PRES   REMARKS
VALENTINE      SUNNY    102  61  25 NW9       29.82S HX 103
AINSWORTH      MOSUNNY   94  73  49 NE6       29.82S HX 102
BROKEN BOW     SUNNY    103  63  27 W6        29.79F HX 105
O`NEILL        SUNNY     92  75  57 N6        29.80S HX 102
ORD            MOSUNNY  100  70  37 VRB7      29.75F HX 107
THEDFORD       SUNNY    102  55  20 NW10G17   29.84F HX 100
$$

NEZ041-046>049-061>064-073>077-083>087-212300-
SOUTH CENTRAL NEBRASKA

CITY           SKY/WX    TMP DP  RH WIND       PRES   REMARKS
GRAND ISLAND   SUNNY     97  72  44 SW15      29.78F HX 105
AURORA         SUNNY     94  76  55 W6        29.79S HX 107
HASTINGS       SUNNY     95  71  45 W8        29.80F HX 102
HEBRON         SUNNY    101  67  33 S10       29.76F HX 106
HOLDREGE       SUNNY     96  70  43 SW5       29.83S HX 102
KEARNEY        SUNNY     95  76  53 S10       29.81F HX 108
YORK           SUNNY     93  77  59 NW7       29.78F HX 107
$$

NEZ011>018-030>034-042>045-212300-
NORTHEAST NEBRASKA

CITY           SKY/WX    TMP DP  RH WIND       PRES   REMARKS
NORFOLK        SUNNY     95  70  44 S8        29.76F HX 101
ALBION         SUNNY     97  75  48 S12       29.76F HX 109
BLAIR          MOSUNNY   97  75  49 SW7       29.77S HX 109
COLUMBUS       SUNNY     94  76  55 S12G18    29.76  HX 106
FREMONT        SUNNY     97  72  45 SW8       29.76F HX 106
TEKAMAH        MOSUNNY   96  75  50 SW8       29.75S HX 108
WAYNE          SUNNY     96  74  49 S7        29.76F HX 106
$$

NEZ050>053-065>068-078-088>093-212300-
SOUTHEAST NEBRASKA

CITY           SKY/WX    TMP DP  RH WIND       PRES   REMARKS
LINCOLN        SUNNY    100  71  39 SW12      29.75F HX 108
OMAHA EPPLEY   MOSUNNY  102  74  40 S13G23    29.74F HX 114
BEATRICE       SUNNY    104  66  29 S17G29    29.76F HX 108
NEBRASKA CITY  SUNNY     97  75  50 SW10      29.77F HX 109
PLATTSMOUTH    SUNNY     97  76  51 S9        29.77S HX 111
$$

NEZ044-045-051>053-067-212300-
OMAHA AREA

CITY           SKY/WX    TMP DP  RH WIND       PRES   REMARKS
OMAHA EPPLEY   MOSUNNY  102  74  40 S13G23    29.74F HX 114
BLAIR          MOSUNNY   97  75  49 SW7       29.77S HX 109
FREMONT        SUNNY     97  72  45 SW8       29.76F HX 106
MILLARD        SUNNY    103  75  41 S9        29.75F HX 116
OFFUTT AFB     SUNNY     99  76  47 S12       29.75S HX 113
PLATTSMOUTH    SUNNY     97  76  51 S9        29.77S HX 111
WAHOO          FAIR      98  72  43 SW6       29.76F HX 106
$$




USA.gov is the U.S. government's official web portal to all federal, state and local government web resources and services.